This is the latest recevied weather packets stored in our database for station/object N8JE-13. If no packets are shown the sender has not sent any weather packets the latest 1 day(s).
| Time | Temp. | Humidity | Pressure | Rain* | Wind** | Luminosity | Snow |
|---|---|---|---|---|---|---|---|
| 1777999250 | 20° C | 67% | 1007.5 hPa | 0 mm | 2.68 m/s, 209° | - | - |
| 1777998952 | 20.56° C | 66% | 1007.6 hPa | 0 mm | 3.13 m/s, 256° | - | - |
| 1777998652 | 20.56° C | 67% | 1007.5 hPa | 0 mm | 1.34 m/s, 239° | - | - |
| 1777998351 | 20.56° C | 67% | 1007.6 hPa | 0 mm | 1.34 m/s, 284° | - | - |
| 1777998050 | 20.56° C | 67% | 1007.6 hPa | 0 mm | 0.89 m/s, 252° | - | - |
| 1777997750 | 20.56° C | 67% | 1007.5 hPa | 0 mm | 2.24 m/s, 219° | - | - |
| 1777997450 | 20.56° C | 66% | 1007.5 hPa | 0 mm | 2.68 m/s, 237° | - | - |
| 1777997152 | 20° C | 68% | 1007.5 hPa | 0 mm | 1.34 m/s, 234° | - | - |
| 1777996851 | 20.56° C | 66% | 1007.5 hPa | 0 mm | 3.13 m/s, 253° | - | - |
| 1777996551 | 20.56° C | 65% | 1007.5 hPa | 0 mm | 3.58 m/s, 235° | - | - |
| 1777996251 | 20.56° C | 67% | 1007.5 hPa | 0 mm | 2.24 m/s, 253° | - | - |
| 1777995951 | 20° C | 69% | 1007.5 hPa | 0 mm | 0.89 m/s, 239° | - | - |
| 1777995651 | 20° C | 69% | 1007.5 hPa | 0 mm | 1.34 m/s, 235° | - | - |
| 1777995351 | 20° C | 69% | 1007.4 hPa | 0 mm | 0.89 m/s, 192° | - | - |
| 1777995052 | 19.44° C | 71% | 1007.5 hPa | 0 mm | 0.89 m/s, 225° | - | - |
| 1777994752 | 19.44° C | 71% | 1007.5 hPa | 0 mm | 2.24 m/s, 267° | - | - |
| 1777994451 | 19.44° C | 71% | 1007.5 hPa | 0 mm | 3.58 m/s, 241° | - | - |
| 1777994151 | 19.44° C | 73% | 1007.4 hPa | 0 mm | 1.34 m/s, 270° | - | - |
| 1777993853 | 18.89° C | 72% | 1007.4 hPa | 0 mm | 2.24 m/s, 255° | - | - |
| 1777993553 | 18.89° C | 74% | 1007.3 hPa | 0 mm | 1.34 m/s, 290° | - | - |
| 1777993252 | 18.33° C | 74% | 1007.3 hPa | 0 mm | 3.13 m/s, 219° | - | - |
| 1777992951 | 18.33° C | 75% | 1007.3 hPa | 0 mm | 2.68 m/s, 218° | - | - |
| 1777992651 | 17.78° C | 75% | 1007.1 hPa | 0 mm | 2.68 m/s, 235° | - | - |
| 1777992351 | 17.78° C | 75% | 1007.1 hPa | 0 mm | 2.68 m/s, 253° | - | - |
| 1777992051 | 17.78° C | 76% | 1007.1 hPa | 0 mm | 3.13 m/s, 259° | - | - |
* Rain latest hour (hover to see other rain measurements)
** Current wind speed in m/s (hover to see current wind gust speed)